Weather History for Hyannis, MA

Change the Weather History Date:

Monday, November 4, 2013

  Actual Average Record
Temperature  
Mean Temperature 37 °F -  
Max Temperature 44 °F 58 °F 74 °F (1990)
Min Temperature 30 °F 41 °F 22 °F (1963)
Degree Days  
Heating Degree Days 28    
Moisture  
Dew Point 25 °F    
Average Humidity 56    
Maximum Humidity 82    
Minimum Humidity 45    
Precipitation  
Precipitation 0.00 in - - ()
Sea Level Pressure  
Sea Level Pressure 30.57 in    
Wind  
Wind Speed 11 mph (NNE)    
Max Wind Speed 17 mph    
Max Gust Speed 28 mph    
Visibility 10 miles    
Events      
Averages and records for this station are not official NWS values.
T = Trace of Precipitation, MM = Missing Value Source: NWS Daily Summary

Daily Weather History Graph

Daily Weather History Graph

Search for Another Location

Airport:

Trip Planner

Search our weather history database for the weather conditions in past years. The results will help you decide how hot, cold, wet, or windy it might be!

Date:

Astronomy

Nov. 04, 2013 Rise Set
Actual Time 6:17 AM EST 4:31 PM EST
Civil Twilight 5:47 AM EST 5:00 PM EST
Nautical Twilight 5:14 AM EST 5:33 PM EST
Astronomical Twilight 4:42 AM EST 6:06 PM EST
Moon 7:24 AM EST (11/4) 5:32 PM EST (11/4)
Length of Visible Light 11h 12m
Length of Day
10h 14m
New Moon, 2% of the Moon is Illuminated
Nov 4
New Moon
Nov 10
First Quarter
Nov 17
Full
Nov 25
Last Quarter
Dec 2
New

Hourly Weather History & Observations

Time (EST) Temp. Windchill Dew Point Humidity Pressure Visibility Wind Dir Wind Speed Gust Speed Precip Events Conditions
12:56 AM 43.0 °F 36.0 °F 27.0 °F 53% 30.35 in 10.0 mi North 13.8 mph 19.6 mph N/A   Overcast
1:56 AM 42.1 °F 34.9 °F 26.1 °F 53% 30.39 in 10.0 mi North 13.8 mph 24.2 mph N/A   Overcast
2:56 AM 41.0 °F 34.3 °F 24.1 °F 51% 30.41 in 10.0 mi North 11.5 mph 19.6 mph N/A   Scattered Clouds
3:56 AM 41.0 °F 33.9 °F 24.1 °F 51% 30.44 in 10.0 mi NNE 12.7 mph 19.6 mph N/A   Mostly Cloudy
4:56 AM 41.0 °F 34.7 °F 23.0 °F 49% 30.46 in 10.0 mi North 10.4 mph 23.0 mph N/A   Mostly Cloudy
5:56 AM 39.9 °F 33.4 °F 24.1 °F 53% 30.49 in 10.0 mi North 10.4 mph - N/A   Mostly Cloudy
6:56 AM 41.0 °F 34.3 °F 24.1 °F 51% 30.52 in 10.0 mi NNE 11.5 mph 20.7 mph N/A   Overcast
7:56 AM 43.0 °F 36.0 °F 24.1 °F 47% 30.55 in 10.0 mi NE 13.8 mph 20.7 mph N/A   Overcast
8:56 AM 42.1 °F 34.5 °F 23.0 °F 47% 30.54 in 10.0 mi NNE 15.0 mph 24.2 mph N/A   Mostly Cloudy
9:56 AM 43.0 °F 36.0 °F 24.1 °F 47% 30.56 in 10.0 mi NE 13.8 mph 27.6 mph N/A   Scattered Clouds
10:56 AM 44.1 °F 36.5 °F 24.1 °F 45% 30.57 in 10.0 mi NNE 17.3 mph - N/A   Scattered Clouds
11:56 AM 44.1 °F 37.1 °F 25.0 °F 47% 30.58 in 10.0 mi North 15.0 mph 24.2 mph N/A   Mostly Cloudy
12:56 PM 42.1 °F 35.2 °F 25.0 °F 51% 30.59 in 10.0 mi North 12.7 mph 23.0 mph N/A   Overcast
1:56 PM 41.0 °F 33.1 °F 24.1 °F 51% 30.59 in 10.0 mi NE 15.0 mph 21.9 mph N/A   Mostly Cloudy
2:56 PM 42.1 °F 35.2 °F 24.1 °F 49% 30.60 in 10.0 mi NNE 12.7 mph - N/A   Mostly Cloudy
3:56 PM 39.9 °F 32.9 °F 25.0 °F 55% 30.62 in 10.0 mi NNE 11.5 mph - N/A   Mostly Cloudy
4:56 PM 39.0 °F 34.0 °F 25.0 °F 57% 30.64 in 10.0 mi NNE 6.9 mph - N/A   Overcast
5:56 PM 37.9 °F 32.1 °F 25.0 °F 60% 30.65 in 10.0 mi NE 8.1 mph - N/A   Mostly Cloudy
6:56 PM 39.0 °F 35.7 °F 26.1 °F 60% 30.67 in 10.0 mi NE 4.6 mph - N/A   Overcast
7:56 PM 39.0 °F 34.8 °F 26.1 °F 60% 30.67 in 10.0 mi NNE 5.8 mph - N/A   Overcast
8:56 PM 37.9 °F 35.5 °F 26.1 °F 62% 30.67 in 10.0 mi East 3.5 mph - N/A   Overcast
9:56 PM 34.0 °F - 26.1 °F 73% 30.66 in 10.0 mi Calm Calm - N/A   Scattered Clouds
10:56 PM 30.9 °F - 25.0 °F 79% 30.67 in 10.0 mi Calm Calm - N/A   Mostly Cloudy
11:56 PM 30.9 °F - 26.1 °F 82% 30.69 in 10.0 mi Calm Calm - N/A   Mostly Cloudy